Location: Asheville, NC
(35.6000°N, 82.5500°W)
Time: 04:35:30
(UTC-05:00)

Vanguard 3 - Pass Details

Date: 09 December 2017
Orbit: 508 x 3264 km, 33.4° (Epoch: 17 January)

Event Time Altitude Azimuth Distance (km) Brightness Sun altitude
Rises 12:07:55 0° 210° (SSW) 3,208 11.0 31.4°
Reaches altitude 10° 12:12:05 10° 178° (S) 1,930 10.7 31.5°
Maximum altitude 12:13:39 12° 156° (SSE) 1,721 10.1 31.5°
Drops below altitude 10° 12:15:07 10° 133° (SE) 1,768 9.7 31.5°
Sets 12:18:27 0° 98° (E) 2,592 9.9 31.5°
